QPF
0.00 0.01 0.02 0.02 0.03 0.03 0.02 0.01 0.01 0.01 0.01 0.01 0.00 0.00 0.01 0.01 0.01 0.01 0.01 0.01 0.01 0.01 0.01 0.01 0.01 0.01 0.02 0.02 0.01 0.01 0.01 0.01 0.01 0.01 0.00 0.00 0.01 0.01 0.01 0.01 0.01 0.01 0.02
0.00 0.01 0.02 0.02 0.03 0.02 0.02 0.01 0.00 0.00 0.01 0.01 0.01 0.01 0.01 0.01 0.01 0.01 0.01 0.01 0.01 0.01 0.01 0.02 0.02 0.02 0.02 0.01 0.01 0.01 0.01 0.01 0.01 0.00 0.00 0.00 0.00 0.00 0.00 0.00 0.00 0.01 0.01
0.00 0.01 0.01 0.02 0.02 0.02 0.01 0.01 0.01 0.00 0.00 0.00 0.00 0.00 0.00 0.00 0.01 0.01 0.01 0.01 0.01 0.01 0.01 0.01 0.02 0.02 0.02 0.02 0.02 0.01 0.01 0.01 0.01 0.01 0.00 0.00 0.00 0.00 0.00 0.00 0.00 0.00 0.00
0.00 0.00 0.01 0.02 0.02 0.02 0.02 0.01 0.01 0.00 0.00 0.00 0.00 0.00 0.00 0.00 0.00 0.00 0.00 0.00 0.00 0.01 0.01 0.01 0.01 0.02 0.02 0.01 0.01 0.01 0.01 0.01 0.01 0.01 0.01 0.00 0.00 0.00 0.00 0.00 0.00 0.00 0.00
0.00 0.00 0.01 0.01 0.02 0.02 0.02 0.01 0.01 0.00 0.00 0.00 0.00 0.00 0.00 0.00 0.01 0.01 0.01 0.00 0.00 0.00 0.01 0.00 0.00 0.01 0.00 0.01 0.01 0.01 0.01 0.01 0.01 0.00 0.00 0.00 0.00 0.00 0.01 0.01 0.01 0.01 0.01
0.00 0.01 0.01 0.01 0.01 0.02 0.02 0.02 0.01 0.01 0.00 0.00 0.00 0.00 0.00 0.01 0.01 0.01 0.01 0.00 0.00 0.01 0.00 0.00 0.00 0.01 0.01 0.01 0.00 0.01 0.01 0.01 0.01 0.00 0.00 0.00 0.00 0.01 0.01 0.01 0.01 0.01 0.01
0.01 0.01 0.02 0.02 0.02 0.02 0.02 0.02 0.02 0.01 0.01 0.01 0.00 0.00 0.00 0.01 0.01 0.01 0.00 0.00 0.00 0.01 0.00 0.00 0.00 0.00 0.00 0.01 0.00 0.01 0.01 0.01 0.01 0.00 0.00 0.00 0.00 0.01 0.01 0.01 0.02 0.02 0.02
0.03 0.03 0.04 0.05 0.03 0.02 0.01 0.02 0.02 0.02 0.01 0.01 0.01 0.01 0.01 0.01 0.01 0.01 0.00 0.00 0.00 0.00 0.00 0.00 0.00 0.00 0.00 0.00 0.00 0.01 0.01 0.01 0.01 0.00 0.00 0.00 0.00 0.01 0.01 0.02 0.02 0.02 0.02
0.05 0.04 0.04 0.04 0.04 0.03 0.03 0.02 0.03 0.02 0.02 0.01 0.01 0.01 0.01 0.01 0.01 0.01 0.00 0.00 0.00 0.00 0.00 0.00 0.00 0.00 0.00 0.00 0.00 0.00 0.00 0.01 0.01 0.01 0.00 0.00 0.00 0.00 0.01 0.02 0.02 0.03 0.03
0.06 0.05 0.05 0.04 0.04 0.03 0.03 0.02 0.02 0.03 0.02 0.02 0.01 0.01 0.01 0.01 0.01 0.01 0.01 0.00 0.00 0.00 0.00 0.00 0.00 0.00 0.00 0.00 0.00 0.00 0.00 0.00 0.01 0.01 0.01 0.00 0.00 0.00 0.01 0.02 0.02 0.03 0.03
0.09 0.06 0.06 0.07 0.06 0.05 0.03 0.02 0.02 0.03 0.04 0.03 0.02 0.02 0.02 0.01 0.01 0.01 0.01 0.00 0.00 0.00 0.00 0.00 0.00 0.00 0.00 0.00 0.00 0.00 0.00 0.00 0.01 0.01 0.01 0.00 0.00 0.01 0.02 0.03 0.03 0.03 0.04
0.13 0.10 0.07 0.06 0.08 0.06 0.05 0.03 0.02 0.02 0.04 0.04 0.02 0.02 0.02 0.02 0.01 0.01 0.01 0.01 0.00 0.00 0.00 0.00 0.00 0.00 0.00 0.00 0.00 0.00 0.00 0.00 0.00 0.01 0.01 0.01 0.01 0.02 0.02 0.03 0.03 0.04 0.04
0.16 0.13 0.09 0.06 0.08 0.09 0.06 0.05 0.03 0.02 0.02 0.03 0.02 0.02 0.02 0.02 0.02 0.02 0.02 0.02 0.01 0.00 0.00 0.00 0.00 0.00 0.00 0.00 0.00 0.00 0.00 0.00 0.00 0.00 0.01 0.01 0.01 0.02 0.03 0.04 0.04 0.04 0.04
0.17 0.13 0.10 0.09 0.08 0.10 0.09 0.06 0.04 0.03 0.02 0.02 0.03 0.02 0.02 0.03 0.03 0.03 0.02 0.02 0.01 0.00 0.00 0.00 0.00 0.00 0.00 0.00 0.00 0.00 0.00 0.00 0.00 0.00 0.02 0.03 0.02 0.02 0.02 0.03 0.04 0.04 0.05
0.15 0.12 0.09 0.09 0.08 0.08 0.10 0.07 0.04 0.02 0.02 0.02 0.02 0.01 0.01 0.03 0.03 0.03 0.03 0.02 0.01 0.00 0.00 0.00 0.00 0.00 0.00 0.00 0.00 0.00 0.00 0.00 0.00 0.00 0.01 0.03 0.02 0.02 0.02 0.02 0.03 0.04 0.05
0.08 0.10 0.08 0.07 0.07 0.07 0.08 0.08 0.05 0.03 0.02 0.02 0.03 0.02 0.01 0.02 0.03 0.03 0.03 0.02 0.01 0.01 0.00 0.00 0.00 0.00 0.00 0.00 0.00 0.01 0.01 0.00 0.00 0.00 0.01 0.02 0.02 0.02 0.01 0.02 0.02 0.03 0.04
0.05 0.07 0.08 0.06 0.06 0.07 0.09 0.09 0.07 0.06 0.03 0.02 0.03 0.04 0.02 0.01 0.02 0.03 0.04 0.03 0.02 0.01 0.00 0.00 0.00 0.00 0.00 0.00 0.00 0.01 0.01 0.01 0.01 0.00 0.00 0.01 0.01 0.01 0.01 0.01 0.01 0.02 0.04
0.04 0.05 0.06 0.05 0.05 0.07 0.10 0.10 0.07 0.07 0.06 0.05 0.03 0.04 0.03 0.02 0.02 0.02 0.04 0.05 0.03 0.01 0.00 0.00 0.00 0.01 0.01 0.01 0.01 0.01 0.01 0.02 0.01 0.01 0.00 0.00 0.01 0.01 0.01 0.01 0.01 0.02 0.03
0.03 0.03 0.05 0.04 0.04 0.06 0.09 0.10 0.09 0.08 0.07 0.07 0.05 0.04 0.04 0.04 0.02 0.02 0.03 0.04 0.05 0.02 0.00 0.00 0.00 0.01 0.01 0.01 0.01 0.01 0.01 0.01 0.01 0.00 0.00 0.00 0.00 0.00 0.00 0.01 0.01 0.01 0.01
0.02 0.02 0.02 0.03 0.03 0.05 0.08 0.12 0.13 0.11 0.10 0.09 0.08 0.07 0.05 0.05 0.04 0.03 0.02 0.03 0.05 0.04 0.01 0.00 0.01 0.01 0.01 0.01 0.01 0.02 0.01 0.01 0.01 0.01 0.00 0.00 0.00 0.00 0.01 0.01 0.01 0.01 0.01
0.01 0.01 0.01 0.01 0.02 0.03 0.06 0.10 0.15 0.15 0.14 0.14 0.12 0.10 0.08 0.05 0.04 0.04 0.03 0.03 0.05 0.06 0.03 0.01 0.01 0.02 0.02 0.03 0.02 0.02 0.02 0.02 0.01 0.01 0.01 0.01 0.01 0.01 0.01 0.01 0.01 0.01 0.01
0.00 0.01 0.01 0.00 0.01 0.02 0.02 0.04 0.09 0.11 0.12 0.15 0.15 0.12 0.09 0.06 0.05 0.05 0.05 0.05 0.05 0.06 0.07 0.07 0.05 0.04 0.03 0.02 0.02 0.02 0.03 0.04 0.03 0.02 0.02 0.02 0.01 0.01 0.00 0.00 0.00 0.01 0.01
0.00 0.00 0.00 0.00 0.00 0.01 0.01 0.01 0.04 0.07 0.08 0.07 0.09 0.11 0.09 0.08 0.07 0.07 0.06 0.05 0.05 0.05 0.05 0.06 0.05 0.04 0.03 0.03 0.03 0.03 0.03 0.04 0.04 0.04 0.04 0.03 0.01 0.01 0.01 0.00 0.00 0.00 0.00
0.00 0.00 0.00 0.00 0.00 0.00 0.01 0.01 0.02 0.03 0.06 0.06 0.04 0.05 0.06 0.05 0.05 0.05 0.05 0.05 0.05 0.06 0.06 0.05 0.04 0.03 0.03 0.04 0.04 0.03 0.04 0.04 0.05 0.05 0.04 0.04 0.03 0.02 0.02 0.01 0.01 0.00 0.00
0.00 0.00 0.00 0.00 0.00 0.00 0.00 0.00 0.01 0.02 0.03 0.05 0.04 0.02 0.03 0.03 0.03 0.03 0.03 0.03 0.03 0.04 0.05 0.05 0.06 0.06 0.06 0.05 0.05 0.04 0.04 0.03 0.03 0.04 0.04 0.03 0.02 0.02 0.02 0.02 0.02 0.01 0.00
0.00 0.00 0.00 0.00 0.00 0.00 0.00 0.00 0.01 0.03 0.03 0.03 0.04 0.03 0.02 0.01 0.02 0.02 0.02 0.03 0.02 0.03 0.03 0.03 0.03 0.04 0.05 0.04 0.03 0.03 0.03 0.02 0.02 0.02 0.02 0.01 0.01 0.01 0.01 0.00 0.00 0.00 0.00
MSLP
1017.09 1016.69 1016.36 1016.15 1016.07 1016.11 1016.22 1016.35 1016.46 1016.52 1016.53 1016.52 1016.51 1016.54 1016.60 1016.71 1016.84 1016.97 1017.06 1017.09 1017.07 1017.00 1016.92 1016.83 1016.77 1016.74 1016.75 1016.78 1016.81 1016.84 1016.84 1016.83 1016.81 1016.79 1016.78 1016.77 1016.77 1016.75 1016.71 1016.64 1016.54 1016.42 1016.30
1017.06 1016.70 1016.41 1016.23 1016.17 1016.22 1016.33 1016.45 1016.56 1016.62 1016.64 1016.64 1016.65 1016.69 1016.78 1016.91 1017.05 1017.18 1017.27 1017.30 1017.27 1017.19 1017.10 1017.00 1016.92 1016.88 1016.86 1016.85 1016.85 1016.84 1016.83 1016.81 1016.79 1016.79 1016.81 1016.83 1016.85 1016.85 1016.83 1016.76 1016.66 1016.54 1016.42
1016.96 1016.65 1016.40 1016.26 1016.25 1016.34 1016.48 1016.63 1016.76 1016.84 1016.87 1016.88 1016.90 1016.95 1017.03 1017.14 1017.27 1017.37 1017.43 1017.44 1017.39 1017.30 1017.20 1017.09 1017.00 1016.94 1016.90 1016.88 1016.85 1016.82 1016.79 1016.77 1016.77 1016.78 1016.82 1016.87 1016.92 1016.94 1016.92 1016.86 1016.76 1016.64 1016.54
1016.85 1016.58 1016.39 1016.32 1016.37 1016.51 1016.71 1016.90 1017.06 1017.17 1017.22 1017.23 1017.24 1017.27 1017.32 1017.39 1017.46 1017.52 1017.54 1017.51 1017.44 1017.34 1017.22 1017.12 1017.03 1016.96 1016.91 1016.87 1016.83 1016.79 1016.76 1016.74 1016.74 1016.77 1016.82 1016.89 1016.94 1016.97 1016.95 1016.89 1016.80 1016.70 1016.60
1016.80 1016.58 1016.45 1016.45 1016.57 1016.77 1017.02 1017.26 1017.45 1017.57 1017.63 1017.64 1017.62 1017.61 1017.61 1017.62 1017.64 1017.64 1017.61 1017.54 1017.45 1017.34 1017.22 1017.12 1017.04 1016.98 1016.93 1016.88 1016.83 1016.78 1016.74 1016.72 1016.72 1016.75 1016.80 1016.86 1016.90 1016.92 1016.90 1016.84 1016.75 1016.65 1016.57
1016.89 1016.72 1016.65 1016.70 1016.87 1017.13 1017.41 1017.68 1017.88 1018.01 1018.06 1018.05 1018.01 1017.96 1017.91 1017.86 1017.82 1017.77 1017.69 1017.60 1017.49 1017.37 1017.26 1017.17 1017.09 1017.03 1016.98 1016.93 1016.87 1016.81 1016.76 1016.72 1016.71 1016.72 1016.75 1016.79 1016.81 1016.80 1016.75 1016.67 1016.58 1016.48 1016.42
1017.13 1017.01 1016.99 1017.09 1017.30 1017.57 1017.87 1018.13 1018.33 1018.44 1018.48 1018.45 1018.38 1018.29 1018.21 1018.12 1018.04 1017.95 1017.85 1017.74 1017.62 1017.50 1017.39 1017.29 1017.22 1017.16 1017.09 1017.03 1016.96 1016.89 1016.82 1016.76 1016.72 1016.70 1016.69 1016.68 1016.65 1016.60 1016.51 1016.41 1016.30 1016.20 1016.15
1017.54 1017.46 1017.48 1017.60 1017.81 1018.08 1018.35 1018.58 1018.75 1018.84 1018.85 1018.80 1018.72 1018.63 1018.53 1018.43 1018.34 1018.24 1018.12 1018.00 1017.87 1017.74 1017.63 1017.52 1017.43 1017.35 1017.27 1017.19 1017.10 1017.01 1016.92 1016.83 1016.75 1016.69 1016.63 1016.56 1016.48 1016.36 1016.23 1016.09 1015.95 1015.84 1015.79
1018.04 1018.01 1018.06 1018.19 1018.39 1018.61 1018.83 1019.01 1019.13 1019.19 1019.18 1019.13 1019.06 1018.97 1018.89 1018.81 1018.73 1018.63 1018.51 1018.39 1018.25 1018.10 1017.96 1017.84 1017.72 1017.61 1017.50 1017.39 1017.28 1017.16 1017.05 1016.94 1016.83 1016.72 1016.61 1016.48 1016.33 1016.16 1015.97 1015.77 1015.60 1015.48 1015.42
1018.56 1018.59 1018.66 1018.80 1018.96 1019.14 1019.30 1019.42 1019.49 1019.51 1019.49 1019.45 1019.40 1019.35 1019.30 1019.25 1019.18 1019.10 1018.99 1018.85 1018.70 1018.53 1018.36 1018.19 1018.03 1017.88 1017.74 1017.61 1017.47 1017.34 1017.22 1017.09 1016.96 1016.82 1016.67 1016.49 1016.28 1016.04 1015.79 1015.55 1015.34 1015.18 1015.10
1019.02 1019.11 1019.22 1019.35 1019.49 1019.62 1019.73 1019.79 1019.82 1019.82 1019.80 1019.78 1019.76 1019.75 1019.74 1019.72 1019.68 1019.61 1019.50 1019.35 1019.17 1018.96 1018.75 1018.54 1018.34 1018.15 1017.98 1017.83 1017.69 1017.56 1017.43 1017.31 1017.17 1017.02 1016.84 1016.62 1016.36 1016.07 1015.77 1015.48 1015.22 1015.03 1014.92
1019.36 1019.52 1019.67 1019.82 1019.95 1020.05 1020.11 1020.15 1020.15 1020.15 1020.14 1020.14 1020.15 1020.17 1020.20 1020.20 1020.18 1020.11 1019.99 1019.82 1019.61 1019.37 1019.12 1018.86 1018.63 1018.41 1018.22 1018.06 1017.93 1017.81 1017.71 1017.60 1017.48 1017.34 1017.15 1016.91 1016.62 1016.29 1015.95 1015.61 1015.32 1015.09 1014.94
1019.57 1019.80 1020.00 1020.18 1020.31 1020.41 1020.46 1020.49 1020.50 1020.50 1020.51 1020.53 1020.57 1020.61 1020.64 1020.66 1020.63 1020.55 1020.41 1020.22 1019.98 1019.71 1019.44 1019.16 1018.90 1018.67 1018.48 1018.33 1018.22 1018.13 1018.06 1017.99 1017.91 1017.78 1017.60 1017.36 1017.06 1016.72 1016.35 1015.98 1015.64 1015.38 1015.20
1019.68 1019.96 1020.22 1020.43 1020.59 1020.70 1020.78 1020.82 1020.85 1020.87 1020.90 1020.95 1021.00 1021.04 1021.07 1021.06 1021.01 1020.91 1020.76 1020.55 1020.30 1020.02 1019.74 1019.45 1019.20 1018.98 1018.80 1018.67 1018.59 1018.54 1018.51 1018.49 1018.45 1018.36 1018.20 1017.98 1017.69 1017.33 1016.95 1016.56 1016.20 1015.90 1015.68
1019.73 1020.06 1020.35 1020.60 1020.79 1020.94 1021.06 1021.14 1021.21 1021.27 1021.32 1021.37 1021.42 1021.45 1021.45 1021.42 1021.34 1021.22 1021.05 1020.83 1020.59 1020.33 1020.06 1019.79 1019.55 1019.35 1019.20 1019.10 1019.05 1019.04 1019.06 1019.08 1019.08 1019.03 1018.92 1018.72 1018.45 1018.10 1017.72 1017.32 1016.95 1016.62 1016.37
1019.77 1020.12 1020.44 1020.71 1020.94 1021.14 1021.30 1021.44 1021.55 1021.65 1021.73 1021.79 1021.82 1021.83 1021.80 1021.73 1021.62 1021.49 1021.32 1021.12 1020.90 1020.67 1020.44 1020.21 1020.01 1019.84 1019.71 1019.64 1019.61 1019.64 1019.69 1019.75 1019.79 1019.78 1019.70 1019.54 1019.29 1018.98 1018.61 1018.22 1017.84 1017.50 1017.22
1019.86 1020.20 1020.51 1020.80 1021.06 1021.29 1021.50 1021.70 1021.86 1022.00 1022.10 1022.17 1022.19 1022.17 1022.11 1022.01 1021.89 1021.75 1021.60 1021.44 1021.27 1021.09 1020.91 1020.73 1020.56 1020.42 1020.31 1020.25 1020.25 1020.29 1020.36 1020.45 1020.52 1020.55 1020.51 1020.38 1020.18 1019.89 1019.55 1019.18 1018.81 1018.46 1018.16
1020.00 1020.30 1020.60 1020.88 1021.15 1021.41 1021.66 1021.90 1022.12 1022.30 1022.42 1022.50 1022.51 1022.48 1022.40 1022.29 1022.17 1022.04 1021.93 1021.81 1021.70 1021.58 1021.46 1021.32 1021.19 1021.07 1020.97 1020.91 1020.91 1020.95 1021.03 1021.14 1021.23 1021.29 1021.28 1021.20 1021.04 1020.79 1020.49 1020.15 1019.80 1019.45 1019.14
1020.16 1020.42 1020.68 1020.94 1021.21 1021.49 1021.77 1022.05 1022.31 1022.52 1022.68 1022.77 1022.78 1022.74 1022.66 1022.56 1022.45 1022.36 1022.29 1022.23 1022.18 1022.12 1022.04 1021.95 1021.84 1021.72 1021.63 1021.56 1021.55 1021.59 1021.67 1021.78 1021.89 1021.97 1022.00 1021.96 1021.83 1021.64 1021.37 1021.07 1020.74 1020.41 1020.09
1020.30 1020.52 1020.74 1020.98 1021.24 1021.52 1021.83 1022.14 1022.43 1022.68 1022.86 1022.97 1023.00 1022.97 1022.90 1022.82 1022.74 1022.69 1022.67 1022.66 1022.66 1022.65 1022.62 1022.54 1022.45 1022.33 1022.23 1022.15 1022.13 1022.16 1022.24 1022.35 1022.48 1022.59 1022.64 1022.63 1022.55 1022.38 1022.16 1021.89 1021.59 1021.28 1020.97
1020.35 1020.56 1020.76 1020.98 1021.23 1021.52 1021.84 1022.17 1022.49 1022.77 1022.98 1023.11 1023.17 1023.16 1023.11 1023.06 1023.02 1023.00 1023.02 1023.06 1023.11 1023.13 1023.12 1023.06 1022.97 1022.85 1022.74 1022.65 1022.62 1022.65 1022.73 1022.86 1022.99 1023.12 1023.20 1023.21 1023.15 1023.02 1022.83 1022.59 1022.32 1022.03 1021.73
1020.27 1020.50 1020.71 1020.93 1021.18 1021.48 1021.81 1022.16 1022.51 1022.81 1023.05 1023.21 1023.29 1023.31 1023.29 1023.26 1023.25 1023.27 1023.33 1023.40 1023.47 1023.51 1023.51 1023.46 1023.37 1023.26 1023.14 1023.06 1023.03 1023.06 1023.16 1023.29 1023.44 1023.57 1023.66 1023.69 1023.64 1023.53 1023.35 1023.14 1022.89 1022.63 1022.35
1020.06 1020.33 1020.58 1020.82 1021.09 1021.41 1021.75 1022.12 1022.49 1022.81 1023.07 1023.26 1023.36 1023.41 1023.42 1023.42 1023.43 1023.48 1023.55 1023.64 1023.73 1023.78 1023.79 1023.75 1023.66 1023.56 1023.45 1023.39 1023.37 1023.42 1023.53 1023.67 1023.83 1023.96 1024.05 1024.07 1024.02 1023.91 1023.74 1023.54 1023.31 1023.07 1022.81
1019.72 1020.08 1020.38 1020.67 1020.98 1021.31 1021.68 1022.06 1022.44 1022.79 1023.07 1023.27 1023.40 1023.46 1023.49 1023.51 1023.54 1023.60 1023.69 1023.79 1023.88 1023.94 1023.96 1023.93 1023.86 1023.77 1023.69 1023.65 1023.66 1023.73 1023.86 1024.01 1024.16 1024.29 1024.36 1024.36 1024.29 1024.17 1024.00 1023.79 1023.58 1023.36 1023.12
1019.31 1019.76 1020.14 1020.49 1020.83 1021.19 1021.58 1021.98 1022.37 1022.73 1023.02 1023.24 1023.38 1023.46 1023.51 1023.54 1023.58 1023.65 1023.74 1023.84 1023.94 1024.01 1024.04 1024.03 1023.98 1023.93 1023.88 1023.87 1023.91 1024.01 1024.14 1024.29 1024.43 1024.54 1024.58 1024.56 1024.47 1024.32 1024.13 1023.93 1023.72 1023.52 1023.30
1018.89 1019.42 1019.88 1020.28 1020.66 1021.05 1021.45 1021.86 1022.26 1022.63 1022.93 1023.15 1023.31 1023.40 1023.46 1023.50 1023.55 1023.62 1023.72 1023.82 1023.92 1024.00 1024.05 1024.07 1024.05 1024.03 1024.02 1024.04 1024.11 1024.21 1024.35 1024.49 1024.62 1024.70 1024.71 1024.66 1024.54 1024.38 1024.18 1023.97 1023.77 1023.58 1023.38
Thickness
5734 5736 5737 5737 5737 5736 5736 5736 5735 5735 5734 5734 5733 5733 5732 5731 5731 5730 5730 5730 5730 5729 5729 5729 5729 5729 5728 5728 5727 5727 5726 5726 5725 5724 5724 5724 5723 5723 5723 5722 5722 5722 5722
5734 5734 5735 5735 5734 5734 5733 5733 5732 5732 5731 5731 5731 5730 5730 5729 5729 5728 5728 5727 5727 5727 5727 5727 5726 5726 5725 5725 5724 5723 5723 5722 5722 5721 5720 5720 5720 5719 5719 5719 5718 5718 5718
5731 5731 5732 5731 5731 5731 5730 5729 5729 5729 5728 5728 5728 5727 5727 5726 5726 5726 5725 5725 5724 5724 5724 5723 5723 5722 5722 5721 5721 5720 5720 5719 5718 5717 5717 5716 5716 5716 5715 5715 5715 5715 5714
5727 5727 5728 5728 5727 5727 5726 5726 5725 5725 5725 5725 5724 5724 5724 5723 5723 5723 5722 5721 5721 5720 5720 5720 5719 5719 5718 5717 5717 5717 5716 5715 5715 5714 5713 5713 5712 5712 5712 5712 5711 5711 5711
5721 5722 5723 5723 5723 5722 5722 5722 5722 5721 5721 5721 5721 5720 5720 5720 5720 5719 5719 5718 5717 5717 5716 5716 5715 5715 5714 5714 5714 5713 5713 5712 5711 5710 5710 5709 5709 5709 5708 5708 5708 5707 5707
5715 5717 5717 5718 5718 5718 5718 5718 5718 5717 5717 5717 5717 5717 5716 5716 5716 5715 5715 5714 5714 5713 5713 5712 5712 5711 5711 5710 5710 5709 5709 5708 5707 5706 5706 5705 5705 5705 5705 5705 5704 5704 5703
5709 5711 5712 5713 5713 5713 5713 5713 5713 5713 5712 5712 5712 5712 5712 5712 5712 5711 5711 5710 5710 5710 5709 5709 5708 5708 5707 5707 5706 5706 5705 5704 5704 5703 5702 5702 5701 5701 5701 5701 5701 5700 5700
5703 5705 5706 5707 5707 5707 5708 5708 5708 5708 5708 5707 5707 5707 5707 5707 5707 5706 5706 5706 5706 5705 5705 5705 5704 5704 5703 5703 5702 5702 5701 5700 5699 5699 5698 5698 5697 5697 5697 5697 5697 5697 5696
5696 5698 5700 5701 5701 5702 5702 5702 5702 5702 5702 5702 5702 5702 5702 5701 5701 5701 5701 5701 5701 5701 5700 5700 5700 5699 5699 5698 5698 5697 5696 5696 5695 5694 5694 5694 5694 5694 5694 5693 5693 5693 5692
5689 5691 5693 5694 5695 5696 5696 5696 5696 5696 5696 5696 5696 5696 5696 5696 5696 5695 5696 5696 5696 5696 5695 5695 5695 5694 5694 5693 5693 5692 5691 5691 5690 5689 5689 5689 5689 5689 5690 5689 5689 5689 5688
5681 5683 5686 5687 5688 5689 5690 5689 5690 5690 5690 5690 5690 5690 5690 5690 5690 5690 5690 5690 5690 5690 5690 5689 5689 5689 5689 5688 5687 5687 5686 5685 5684 5684 5684 5684 5684 5685 5685 5685 5685 5684 5684
5673 5675 5678 5680 5682 5683 5683 5683 5683 5684 5683 5683 5684 5684 5684 5683 5683 5683 5683 5683 5684 5683 5683 5683 5683 5683 5683 5682 5682 5681 5680 5679 5678 5678 5678 5679 5679 5680 5680 5680 5680 5680 5679
5666 5668 5670 5672 5674 5676 5677 5677 5677 5677 5677 5677 5677 5678 5678 5677 5677 5677 5677 5677 5677 5677 5677 5677 5677 5677 5676 5676 5676 5675 5674 5673 5673 5672 5672 5673 5673 5674 5674 5674 5674 5674 5674
5658 5660 5662 5664 5666 5668 5670 5670 5670 5670 5670 5670 5671 5671 5671 5671 5671 5670 5670 5670 5670 5670 5670 5670 5670 5670 5670 5670 5669 5669 5668 5667 5667 5666 5666 5667 5667 5668 5668 5668 5667 5667 5667
5650 5651 5654 5657 5659 5661 5662 5663 5663 5663 5663 5663 5664 5664 5664 5664 5663 5663 5663 5663 5663 5663 5663 5663 5664 5664 5664 5663 5663 5662 5662 5661 5660 5660 5659 5660 5661 5660 5660 5660 5660 5661 5661
5643 5645 5647 5650 5652 5654 5655 5655 5655 5655 5656 5656 5656 5657 5657 5657 5656 5656 5656 5656 5656 5656 5656 5656 5656 5656 5657 5657 5656 5656 5655 5655 5654 5653 5653 5653 5653 5653 5653 5653 5653 5653 5653
5636 5638 5640 5643 5645 5646 5647 5648 5648 5648 5648 5649 5649 5649 5650 5649 5649 5648 5648 5648 5648 5649 5649 5649 5649 5650 5650 5650 5649 5649 5648 5648 5647 5646 5645 5645 5645 5644 5644 5644 5644 5644 5644
5629 5631 5633 5636 5637 5638 5639 5640 5640 5640 5641 5641 5641 5641 5642 5642 5641 5641 5640 5640 5641 5641 5642 5642 5641 5641 5641 5641 5641 5641 5641 5640 5639 5638 5637 5637 5636 5636 5635 5635 5634 5634 5634
5622 5624 5626 5628 5629 5630 5631 5632 5632 5632 5632 5633 5633 5633 5634 5634 5634 5634 5633 5633 5633 5634 5633 5633 5633 5632 5632 5632 5633 5633 5632 5632 5631 5630 5629 5628 5627 5626 5625 5625 5624 5623 5623
5614 5616 5619 5620 5621 5622 5623 5624 5624 5624 5624 5624 5625 5626 5626 5626 5626 5626 5625 5625 5625 5625 5625 5624 5624 5624 5623 5623 5625 5624 5623 5623 5622 5620 5619 5618 5617 5616 5615 5614 5613 5613 5612
5607 5609 5611 5612 5613 5614 5615 5615 5615 5615 5615 5616 5617 5617 5618 5618 5618 5618 5617 5617 5617 5616 5615 5615 5615 5615 5614 5614 5614 5614 5614 5613 5612 5610 5609 5608 5606 5605 5604 5603 5602 5601 5600
5601 5602 5603 5605 5606 5607 5608 5608 5608 5607 5607 5608 5608 5609 5609 5609 5609 5609 5608 5608 5608 5607 5607 5606 5605 5604 5604 5603 5602 5603 5602 5602 5602 5600 5599 5597 5595 5594 5593 5592 5591 5590 5589
5595 5596 5598 5598 5598 5599 5600 5600 5600 5600 5600 5599 5600 5600 5600 5600 5600 5600 5600 5600 5599 5598 5597 5596 5595 5594 5592 5592 5591 5590 5590 5591 5588 5588 5587 5585 5583 5582 5581 5580 5579 5578 5578
5590 5590 5591 5591 5591 5592 5593 5593 5592 5591 5591 5591 5591 5591 5592 5592 5592 5591 5591 5591 5590 5589 5588 5587 5586 5584 5583 5581 5580 5578 5577 5577 5576 5576 5575 5573 5572 5571 5569 5568 5567 5567 5566
5586 5584 5584 5585 5585 5585 5586 5586 5585 5584 5583 5582 5583 5583 5584 5584 5583 5583 5582 5581 5580 5579 5578 5577 5576 5574 5572 5570 5569 5567 5566 5565 5564 5563 5563 5561 5560 5559 5557 5556 5555 5555 5555
5580 5579 5578 5578 5578 5579 5579 5578 5577 5577 5576 5575 5575 5575 5575 5574 5574 5574 5573 5572 5571 5570 5568 5567 5566 5564 5562 5560 5558 5556 5554 5553 5552 5551 5550 5548 5548 5547 5546 5544 5543 5543 5542